Weather History for KHUT - May, 2012

Change the Weather History Date:

Thursday, May 10, 2012

  Actual Average Record
Temperature  
Mean Temperature 68 °F -  
Max Temperature 87 °F 75 °F 95 °F (2005)
Min Temperature 50 °F 49 °F 32 °F (1997)
Cooling Degree Days 3    
Growing Degree Days 18 (Base 50)    
Moisture  
Dew Point 48 °F    
Average Humidity 53    
Maximum Humidity 89    
Minimum Humidity 22    
Precipitation  
Precipitation 0.00 in - - ()
Sea Level Pressure  
Sea Level Pressure 29.85 in    
Wind  
Wind Speed 9 mph (SSE)    
Max Wind Speed 21 mph    
Max Gust Speed 26 mph    
Visibility 10 miles    
Events      
Averages and records for this station are not official NWS values.
T = Trace of Precipitation, MM = Missing Value Source: NWS Daily Summary

Daily Weather History Graph

Daily Weather History Graph

Search for Another Location

Airport or City:

Trip Planner

Search our weather history database for the weather conditions in past years. The results will help you decide how hot, cold, wet, or windy it might be!

Date:

Astronomy

May. 10, 2012 Rise Set
Actual Time 6:24 AM CDT 8:31 PM CDT
Civil Twilight 5:55 AM CDT 9:00 PM CDT
Nautical Twilight 5:20 AM CDT 9:36 PM CDT
Astronomical Twilight 4:41 AM CDT 10:15 PM CDT
Moon 12:30 AM CDT (5/10) 10:51 AM CDT (5/10)
Length of Visible Light 15h 04m
Length of Day
14h 06m
Waning Gibbous, 73% of the Moon is Illuminated
May 10
Waning Gibbous
May 12
Last Quarter
May 20
New
May 28
First Quarter
Jun 4
Full

Hourly Weather History & Observations

Time (CDT) Temp. Dew Point Humidity Pressure Visibility Wind Dir Wind Speed Gust Speed Precip Events Conditions
12:52 AM 55.0 °F 46.9 °F 74% 29.91 in 10.0 mi SSE 5.8 mph - N/A   Clear
1:52 AM 53.1 °F 46.9 °F 80% 29.91 in 10.0 mi SSE 5.8 mph - N/A   Clear
2:52 AM 53.6 °F 46.4 °F 77% 29.93 in 10.0 mi SE 6.9 mph - N/A   Clear
3:52 AM 53.1 °F 48.0 °F 83% 29.88 in 10.0 mi SE 8.1 mph - N/A   Clear
4:52 AM 53.1 °F 48.0 °F 83% 29.88 in 10.0 mi SE 6.9 mph - N/A   Clear
5:52 AM 52.0 °F 48.0 °F 86% 29.88 in 10.0 mi SSE 6.9 mph - N/A   Clear
6:52 AM 50.0 °F 46.9 °F 89% 29.88 in 10.0 mi SSE 5.8 mph - N/A   Clear
7:52 AM 55.9 °F 51.1 °F 84% 29.89 in 10.0 mi SSE 8.1 mph - N/A   Clear
8:52 AM 64.0 °F 50.0 °F 60% 29.88 in 10.0 mi South 8.1 mph - N/A   Clear
9:52 AM 70.0 °F 48.0 °F 46% 29.87 in 10.0 mi SSW 13.8 mph - N/A   Clear
10:52 AM 75.9 °F 48.0 °F 37% 29.86 in 10.0 mi SSW 15.0 mph 23.0 mph N/A   Clear
11:52 AM 81.0 °F 48.9 °F 33% 29.83 in 10.0 mi SSW 19.6 mph - N/A   Clear
12:52 PM 82.9 °F 50.0 °F 32% 29.82 in 10.0 mi SSW 20.7 mph 25.3 mph N/A   Clear
1:52 PM 86.0 °F 48.9 °F 28% 29.80 in 10.0 mi South 13.8 mph 24.2 mph N/A   Clear
2:52 PM 86.0 °F 44.1 °F 23% 29.79 in 10.0 mi South 16.1 mph 24.2 mph N/A   Clear
3:52 PM 84.9 °F 43.0 °F 23% 29.78 in 10.0 mi SSW 5.8 mph 25.3 mph N/A   Clear
4:52 PM 86.0 °F 43.0 °F 22% 29.77 in 10.0 mi SSE 16.1 mph 24.2 mph N/A   Clear
5:52 PM 82.9 °F 43.0 °F 24% 29.78 in 10.0 mi SSE 19.6 mph 26.5 mph N/A   Clear
6:52 PM 81.0 °F 46.0 °F 29% 29.79 in 10.0 mi SSE 17.3 mph 23.0 mph N/A   Clear
7:52 PM 77.0 °F 46.9 °F 34% 29.81 in 10.0 mi SSE 11.5 mph - N/A   Clear
8:52 PM 72.0 °F 48.9 °F 44% 29.82 in 10.0 mi SSE 10.4 mph - N/A   Clear
9:52 PM 66.9 °F 50.0 °F 54% 29.84 in 10.0 mi SSE 8.1 mph - N/A   Clear
10:52 PM 63.0 °F 50.0 °F 63% 29.86 in 10.0 mi SSE 5.8 mph - N/A   Clear
11:52 PM 62.1 °F 51.1 °F 67% 29.86 in 10.0 mi SSE 5.8 mph - N/A   Clear